Find Kuiper-00142

NORAD ID: 65766 Int'l Des: 2025-217 Owner: KUIP Country: US Constellation: amazon-leo operational
LEOCIRCULAR

現在のビュー

3D地球を読み込み中...

About Kuiper-00142

Kuiper-00142 (NORAD 65766) is a amazon-leo constellation satellite launched Sep 25, 2025 by KUIP of US. It operates in LEO, CIRCULAR orbit with a mass of 490.00 kg.

次回通過

Passes for default location (London). Set your location on the main map for personalized predictions.

高度履歴

Loading altitude history...

軌道要素

1 65766U 25217E 26237.11074827 .00002401 00000-0 34391-3 0 9997
2 65766 51.9004 10.8215 0000510 101.1121 258.9898 14.79929090 49924
Epoch: Aug 25, 2026 • Age: 16 hours

現在のステータス

高度 633.3 km
遠地点 / 近地点 N/A
速度 7.55 km/s
衛星直下点 42.45°N, 152.29°E
打ち上げ日 Sep 25, 2025
運用期間 0.9 years
タイプ internet

技術仕様

分類 Payload
質量 490.00 kg
乾燥質量 490.00 kg
総質量 490.00 kg
長さ 1.80 m
直径 0.70 m
スパン 5.00 m
形状 Box + 2 pan
製造者 KUIP
バスタイプ Kuiper
フェーズステータス In Orbit
所有者/国 KUIP/US

Most Searched